#timestamp,LO_Frequency,Hit,StdDev 
1604829615.6,286046998.7,N
1604829635.4,286046996.9,N
1604829655.2,286046996.5,N
1604829675.1,286046997.4,N
1604829676.0,286046997.4,N
1604829695.8,286046998.7,N
1604829715.6,286046996.9,N
1604829735.5,286046997.7,N
1604829755.3,286046997.9,N
1604829775.2,286046997.5,N
1604829795.9,286046994.9,Y
1604829815.7,286046997.0,P
1604829835.6,286046998.9,N
1604829855.4,286046997.0,P
1604829875.2,286046999.5,N
1604829895.1,286046999.5,N
1604829896.0,286046999.5,N
1604829915.8,286046997.0,N
1604829935.7,286046996.5,Y
1604829955.5,286046998.8,P
1604829975.3,286047000.7,N
1604829995.2,286047000.9,N
1604830015.0,286047001.0,N
1604830015.9,286047001.0,N
1604830035.8,286047001.1,N
1604830055.6,286047000.6,N
1604830075.4,286047000.3,N
1604830095.3,286047000.9,N
1604830115.1,286047000.6,N
1604830135.8,286047000.5,N
1604830155.7,286047000.6,N
1604830175.5,286047000.1,N
1604830195.4,286047002.6,Y
1604830215.2,286047002.7,P
1604830235.0,286047000.1,N
1604830235.9,286047000.1,N
1604830255.8,286047001.9,N
1604830275.6,286047002.5,N
1604830295.5,286047001.0,N
1604830315.3,286046998.1,N
1604830335.1,286046998.7,N
1604830355.9,286046999.2,N
1604830375.7,286046998.7,N
1604830395.5,286047001.2,N
1604830415.4,286046998.2,N
1604830435.2,286047000.7,N
1604830455.1,286047001.0,N
1604830456.0,286047001.0,N
1604830475.8,286046999.8,N
1604830495.6,286047002.7,N
1604830515.5,286047002.6,N
1604830535.3,286046999.9,N
1604830555.1,286047000.9,N
1604830575.9,286046998.1,N
1604830595.7,286047000.6,N
1604830615.6,286047000.7,N
1604830635.4,286047000.9,N
1604830655.2,286047000.5,N
1604830675.1,286047000.8,N
1604830676.0,286047000.8,N
1604830695.8,286046999.9,N
1604830715.7,286047000.5,N
1604830735.5,286046999.7,N
1604830755.3,286047002.8,N
1604830775.2,286047001.0,N
1604830795.0,286046998.2,N
1604830795.9,286046998.2,N
1604830815.7,286047001.1,N
1604830835.6,286046998.3,N
1604830855.4,286046999.0,N
1604830875.3,286046998.6,N
1604830895.1,286046998.9,N
1604830915.8,286046998.4,N
1604830935.7,286046999.4,N
1604830955.5,286046998.7,N
1604830975.4,286046999.4,N
1604830995.2,286046996.9,N
1604831015.0,286046997.0,N
1604831015.9,286046997.0,N
1604831035.8,286046996.6,N
1604831055.6,286046995.0,Y
1604831075.4,286046997.8,P
1604831095.3,286046997.8,N
1604831115.1,286046995.0,P
1604831135.9,286046997.7,N
1604831155.7,286046997.7,N
1604831175.5,286046995.5,Y
1604831195.4,286046996.6,P
1604831215.2,286046999.0,N
1604831235.1,286046999.2,N
1604831236.0,286046999.2,N
1604831255.8,286047001.2,N
1604831275.6,286046999.5,N
1604831295.5,286046999.5,N
1604831315.3,286046999.2,N
1604831335.1,286046998.4,N
1604831355.9,286046998.2,N
1604831375.7,286046998.2,N
1604831395.6,286046998.7,N
1604831415.4,286046998.7,N
1604831465.3,286046999.5,E
1604831475.2,286046999.3,N
1604831495.0,286046998.4,P
1604831495.9,286046998.4,P
1604831515.8,286046999.5,N
1604831535.6,286046996.5,Y
1604831555.4,286047001.2,P
1604831575.3,286046998.6,N
1604831595.1,286046998.5,N
1604831615.9,286047000.6,N
1604831635.7,286047000.8,N
1604831655.5,286047000.8,N
1604831675.4,286047000.8,N
1604831695.2,286047000.8,N
1604831715.0,286046998.6,N
1604831715.9,286046998.6,N
1604831735.8,286046998.1,N
1604831755.6,286046999.4,N
1604831775.5,286046996.9,N
1604831795.3,286046999.0,N
1604831815.1,286046998.4,N
1604831835.9,286046998.9,N
1604831855.7,286046998.4,N
1604831875.6,286046999.1,N
1604831895.4,286046996.5,Y
1604831915.2,286046998.9,P
1604831935.1,286046998.3,P
1604831936.0,286046998.3,P
1604831955.8,286046998.7,Y
1604831975.7,286047000.6,P
1604831995.5,286047000.1,N
1604832015.3,286046999.9,N
1604832035.2,286047001.1,N
1604832055.9,286047000.9,N
1604832075.7,286047000.8,N
1604832095.6,286047000.8,N
1604832115.4,286047001.0,N
1604832135.3,286047000.5,N
1604832155.1,286047000.6,N
1604832156.0,286047000.6,N
1604832175.8,286046998.5,N
1604832195.7,286046998.7,N
1604832215.5,286046999.0,N
1604832235.3,286047001.2,N
1604832255.2,286047001.2,N
1604832275.0,286047001.2,N
1604832275.9,286047001.2,N
1604832295.8,286047000.8,N
1604832315.6,286047000.5,N
1604832335.4,286047000.5,N
1604832355.3,286047000.8,N
1604832375.1,286047000.6,N
1604832395.8,286047000.5,N
1604832415.7,286047000.8,N
1604832435.5,286046998.1,N
1604832455.4,286046998.2,N
1604832475.2,286047001.1,N
1604832495.0,286046998.1,N
1604832495.9,286046998.1,N
1604832515.8,286047001.2,N
1604832535.6,286046999.3,N
1604832555.5,286046999.3,N
1604832575.3,286046998.3,N
1604832595.1,286046998.1,N
1604832615.9,286047001.1,N
1604832635.7,286047001.0,N
1604832655.5,286047000.1,N
1604832675.4,286047002.8,N
1604832695.2,286047000.2,N
1604832715.1,286047000.5,N
1604832716.0,286047000.5,N
1604832735.8,286047000.3,N
1604832755.6,286047002.8,N
1604832775.5,286047002.7,N
1604832795.3,286047000.4,N
1604832815.1,286047000.0,N
1604832835.9,286047000.1,N
1604832855.7,286047000.3,N
1604832875.6,286047000.2,N
1604832895.4,286047000.9,N
1604832915.2,286047000.3,N
1604832935.1,286047002.7,N
1604832936.0,286047002.7,N
1604832955.8,286047002.1,N
1604832975.7,286046999.9,N
1604832995.5,286047000.3,N
1604833015.3,286047000.3,N
1604833035.2,286046999.7,N
1604833055.0,286046999.7,N
1604833055.9,286046999.7,N
1604833075.7,286046999.7,N
1604833095.6,286047002.7,N
1604833115.4,286047000.2,N
1604833135.3,286046999.8,N
1604833155.1,286047002.8,N
1604833156.0,286047002.8,N
1604833175.8,286047002.7,N
1604833195.7,286046999.7,N
